Terminal Aerodrome Forecast
Issued by NWS Sioux Falls, SD

Home | Current Version | Previous Version | Graphics & Text | Print | Product List | Glossary Off
Versions: 1 2 3 4 5 6 7 8 9 10 11 12 13 14 15 16 17 18 19 20 21 22 23 24 25 26

194
FTUS43 KFSD 240404 AAB
TAFFSD
TAF AMD
KFSD 240404Z 2404/2424 06007KT P6SM SHRA OVC027
     FM240600 06007KT 5SM -SHRA VCTS OVC020CB
     FM240800 03009KT 3SM SHRA OVC008
     FM241100 03012G20KT 3SM SHRA OVC008
     FM241300 03014G23KT 2SM SHRA OVC005
     FM241800 03017G27KT 3SM -SHRA OVC008
     FM241900 03017G27KT 6SM -SHRA OVC010=

USA.gov is the U.S. government's official web portal to all federal, state and local government web resources and services.